Weather History for Glasgow, MT

Change the Weather History Date:

Sunday, September 15, 2013

  Actual Average Record
Temperature  
Mean Temperature 60 °F 58 °F  
Max Temperature 76 °F 72 °F 91 °F (1998)
Min Temperature 44 °F 45 °F 25 °F (1897)
Degree Days  
Heating Degree Days 5 8  
Month to date heating degree days 7 81  
Since 1 July heating degree days 22 134  
Cooling Degree Days 0 1  
Month to date cooling degree days 81 30  
Year to date cooling degree days 558 525  
Growing Degree Days 10 (Base 50)    
Moisture  
Dew Point 45 °F    
Average Humidity 63    
Maximum Humidity 93    
Minimum Humidity 33    
Precipitation  
Precipitation 0.00 in 0.03 in 0.48 in (1954)
Month to date precipitation 1.53 0.47  
Year to date precipitation 14.12 9.64  
Snow  
Snow 0.00 in 0.00 in T in (1997)
Month to date snowfall 0.0 0.0  
Since 1 July snowfall 0.0 0.0  
Since 1 September snowfall 0.0 0.0  
Snow Depth 0.00 in    
Sea Level Pressure  
Sea Level Pressure 30.16 in    
Wind  
Wind Speed 13 mph (ESE)    
Max Wind Speed 21 mph    
Max Gust Speed 26 mph    
Visibility 10 miles    
Events      
T = Trace of Precipitation, MM = Missing Value Source: NWS Daily Summary

Daily Weather History Graph

Daily Weather History Graph

Search for Another Location

Airport:

Trip Planner

Search our weather history database for the weather conditions in past years. The results will help you decide how hot, cold, wet, or windy it might be!

Date:

Astronomy

Sep. 15, 2013 Rise Set
Actual Time 6:43 AM MDT 7:18 PM MDT
Civil Twilight 6:12 AM MDT 7:49 PM MDT
Nautical Twilight 5:35 AM MDT 8:26 PM MDT
Astronomical Twilight 4:56 AM MDT 9:05 PM MDT
Moon 5:00 PM MDT (9/15) 2:09 AM MDT (9/15)
Length of Visible Light 13h 37m
Length of Day
12h 34m
Waxing Gibbous, 82% of the Moon is Illuminated
Sep 15
Waxing Gibbous
Sep 19
Full
Sep 26
Last Quarter
Oct 4
New
Oct 11
First Quarter

Hourly Weather History & Observations

Time (MDT) Temp. Windchill Dew Point Humidity Pressure Visibility Wind Dir Wind Speed Gust Speed Precip Events Conditions
12:53 AM 54.0 °F - 41.0 °F 62% 30.15 in 10.0 mi NE 13.8 mph - N/A   Clear
1:53 AM 51.1 °F - 41.0 °F 68% 30.16 in 10.0 mi ENE 9.2 mph - N/A   Clear
2:53 AM 48.9 °F - 42.1 °F 77% 30.17 in 10.0 mi ENE 6.9 mph - N/A   Clear
3:53 AM 46.0 °F 43.9 °F 41.0 °F 83% 30.19 in 10.0 mi South 4.6 mph - N/A   Clear
4:53 AM 45.0 °F 42.6 °F 41.0 °F 86% 30.20 in 10.0 mi SE 4.6 mph - N/A   Clear
5:53 AM 46.0 °F 41.4 °F 43.0 °F 89% 30.21 in 10.0 mi East 9.2 mph - N/A   Clear
6:53 AM 46.9 °F - 44.1 °F 90% 30.22 in 10.0 mi East 10.4 mph - N/A   Clear
7:53 AM 50.0 °F - 46.9 °F 89% 30.24 in 10.0 mi ESE 13.8 mph - N/A   Clear
8:53 AM 55.0 °F - 46.9 °F 74% 30.24 in 10.0 mi ESE 12.7 mph - N/A   Clear
9:53 AM 59.0 °F - 48.0 °F 67% 30.25 in 10.0 mi SE 11.5 mph - N/A   Clear
10:53 AM 63.0 °F - 48.9 °F 60% 30.24 in 10.0 mi ESE 10.4 mph - N/A   Clear
11:53 AM 68.0 °F - 48.9 °F 50% 30.22 in 10.0 mi SE 13.8 mph - N/A   Clear
12:53 PM 71.1 °F - 48.0 °F 44% 30.20 in 10.0 mi SE 17.3 mph 23.0 mph N/A   Clear
1:53 PM 73.9 °F - 43.0 °F 33% 30.18 in 10.0 mi SSE 16.1 mph 26.5 mph N/A   Clear
2:53 PM 75.0 °F - 45.0 °F 34% 30.16 in 10.0 mi SE 19.6 mph 26.5 mph N/A   Clear
3:53 PM 75.0 °F - 45.0 °F 34% 30.14 in 10.0 mi SE 17.3 mph - N/A   Clear
4:53 PM 75.0 °F - 46.0 °F 36% 30.12 in 10.0 mi SE 17.3 mph 25.3 mph N/A   Clear
5:53 PM 73.9 °F - 46.0 °F 37% 30.11 in 10.0 mi SSE 13.8 mph - N/A   Clear
6:53 PM 70.0 °F - 44.1 °F 39% 30.10 in 10.0 mi SE 12.7 mph - N/A   Clear
7:53 PM 64.9 °F - 45.0 °F 48% 30.10 in 10.0 mi ESE 15.0 mph - N/A   Clear
8:53 PM 63.0 °F - 45.0 °F 52% 30.10 in 10.0 mi ESE 18.4 mph - N/A   Clear
9:53 PM 60.1 °F - 44.1 °F 55% 30.09 in 10.0 mi ESE 16.1 mph - N/A   Clear
10:53 PM 57.9 °F - 44.1 °F 60% 30.08 in 10.0 mi ESE 16.1 mph - N/A   Clear
11:53 PM 55.9 °F - 42.1 °F 60% 30.05 in 10.0 mi ESE 15.0 mph - N/A   Clear